[[{"header":{"parameterUnit":"m.s-1","parameterCategory":1,"la1":30.2991,"la2":30.254,"lo1":-89.0895,"lo2":-89.0444,"dy":0.0017,"dx":0.0017,"nx":28,"ny":28,"refTime":"2024-04-09T09:00:00:Z","depth":0,"parameterNumber":2,"parameterNumberName":"U-component_of_WINDS"},"data":[0,0,0,0,0,0,0,0,0,0,0,0,0,0,0,0,0,0,0,0,0,0,0,0,0,0,0,0,0,0,0,0,0,0,0,0,0,0,0,0,0,0,0,0,0,0,0,0,0,0,0,0,0,0,0,0,0,0,-4.8905,-4.8907,0,-4.9079,-4.9081,-4.9083,-4.9123,-4.9121,-4.912,-4.9119,-4.9299,-4.9304,-4.931,0,0,0,0,0,0,0,0,0,0,0,0,0,-4.861,-4.8615,-4.8905,-4.8907,-4.891,-4.9079,-4.9081,-4.9084,-4.9123,-4.9121,-4.912,-4.9118,-4.9297,-4.9304,-4.9311,0,0,0,0,0,0,0,0,0,0,0,0,0,-4.8756,-4.8617,-4.8905,-4.8949,-4.8955,-4.9078,-4.9081,-4.9084,-4.9123,-4.9121,-4.9119,-4.9118,-4.9294,-4.9303,-4.9312,-4.9403,0,0,-4.9339,-4.9343,0,0,0,0,0,0,0,0,-4.8748,-4.8767,-4.8941,-4.8947,-4.8953,-4.9077,-4.9043,-4.9191,-4.9124,-4.9059,-4.9119,-4.9117,-4.9227,-4.9241,-4.9278,-4.9411,-4.9419,-4.934,-4.9345,-4.9349,-4.9351,0,0,0,0,0,0,0,-4.8738,-4.876,-4.8974,-4.8943,-4.8951,-4.8962,-4.898,-4.9071,-4.9151,-4.9065,-4.9068,-4.9088,-4.923,-4.9269,-4.9282,-4.9422,-4.9339,-4.9347,-4.9353,-4.9356,-4.964,-4.9642,0,0,0,0,0,0,-4.872,-4.8751,-4.8969,-4.8979,-4.8844,-4.8968,-4.899,-4.9039,-4.915,-4.9165,-4.9089,-4.9089,-4.9255,-4.9272,-4.9288,-4.9402,-4.9349,-4.9357,-4.9362,-4.9638,-4.964,-4.9643,0,0,0,0,0,0,-4.8713,-4.8739,-4.8962,-4.8866,-4.8895,-4.8976,-4.9031,-4.9044,-4.9083,-4.9169,-4.9183,-4.9115,-4.9254,-4.9276,-4.9374,-4.9409,-4.9361,-4.9369,-4.9635,-4.9638,-4.9642,-4.963,0,0,0,0,0,0,-4.8704,-4.8736,-4.8771,-4.8867,-4.89,-4.9043,-4.9033,-4.9048,-4.9098,-4.9099,-4.9196,-4.9211,-4.9254,-4.9361,-4.9383,-4.942,-4.9376,-4.9632,-4.9637,-4.9641,-4.9628,-4.9633,-4.9637,0,0,0,0,0,-4.8694,-4.8761,-4.8772,-4.8798,-4.8945,-4.9045,-4.9065,-4.9113,-4.9101,-4.9137,-4.9192,-4.9208,-4.9402,-4.937,-4.9396,-4.9436,-4.963,-4.9635,-4.964,-4.9626,-4.9632,-4.9637,0,0,0,0,0,0,-4.8667,-4.8774,-4.8788,-4.8888,-4.8957,-4.9052,-4.9098,-4.9118,-4.9192,-4.919,-4.9248,-4.9269,-4.9364,-4.9411,-4.9373,-4.9531,-4.9516,-4.9526,-4.9496,-4.9503,-4.9507,-4.9493,-4.9383,0,0,0,0,0,-4.8673,-4.8745,-4.8835,-4.8915,-4.8949,-4.9018,-4.9063,-4.9094,-4.9168,-4.9198,-4.926,-4.9332,-4.941,-4.9459,-4.9535,-4.9636,-4.9657,-4.9676,-4.9681,-4.9684,-4.9692,-4.9748,-4.9758,-4.9659,-4.9659,-4.9659,0,0,-4.8686,-4.8753,-4.8795,-4.8911,-4.8968,-4.9041,-4.9042,-4.9119,-4.9174,-4.921,-4.9306,-4.9354,-4.9439,-4.9538,-4.9585,-4.958,-4.9724,-4.9691,-4.9693,-4.9699,-4.9754,-4.9764,-4.9772,-4.9662,-4.9662,-4.9661,0,0,-4.8746,-4.8805,-4.8877,-4.8935,-4.9021,-4.9067,-4.9084,-4.9177,-4.921,-4.9307,-4.9335,-4.9403,-4.9535,-4.9593,-4.964,-4.9724,-4.9741,-4.9748,-4.9771,-4.9825,-4.9833,-4.984,-4.9869,-4.9879,-4.9756,-4.9756,-4.9756,0,-4.8751,-4.8862,-4.8912,-4.8989,-4.9039,-4.9074,-4.9149,-4.9202,-4.9309,-4.9344,-4.9336,-4.9503,-4.9562,-4.9676,-4.9696,-4.9734,-4.9756,-4.9736,-4.9828,-4.9835,-4.9843,-4.9871,-4.9882,-4.9756,-4.9756,-4.9756,-4.9756,0,-4.8863,-4.894,-4.8988,-4.909,-4.9146,-4.9221,-4.9283,-4.9335,-4.9362,-4.9408,-4.9507,-4.958,-4.9671,-4.9701,-4.9728,-4.9819,-4.9813,-4.9816,-4.9802,-4.9851,-4.9879,-4.989,-4.9756,-4.9756,-4.9756,-4.9756,0,0,-4.891,-4.9039,-4.9056,-4.9102,-4.9201,-4.9262,-4.9339,-4.9428,-4.947,-4.9544,-4.9609,-4.9721,-4.9725,-4.9778,-4.9813,-4.9861,-4.9922,-4.9859,-4.9862,-4.9866,-5.0025,-5.0021,-5.0032,-4.9935,-4.9937,-4.9939,-5.0018,0,-4.8981,-4.9118,-4.9166,-4.928,-4.9351,-4.9387,-4.9454,-4.9522,-4.9569,-4.9637,-4.9689,-4.9766,-4.9766,-4.9798,-4.9848,-4.9904,-4.9954,-4.9899,-4.9996,-4.9999,-4.9971,-5.0047,-5.0042,-5.0113,-5.0029,-5.0031,-5.0032,0,-4.9082,-4.9155,-4.9275,-4.9365,-4.9397,-4.9456,-4.9542,-4.9607,-4.9685,-4.9716,-4.9776,-4.9807,-4.989,-4.9872,-4.9987,-4.9949,-4.9992,-5.0026,-5.003,-5.0039,-5.0017,-5.0056,-5.0137,-5.0147,-5.005,-5.0048,-5.0047,0,-4.9102,-4.9232,-4.932,-4.9359,-4.9467,-4.9507,-4.9554,-4.9631,-4.9682,-4.9757,-4.979,-4.9875,-4.992,-4.9985,-5.0039,-5.0021,-5.0149,-5.0136,-5.0176,-5.0174,-5.0199,-5.0196,-5.0286,-5.023,-5.023,-5.023,-5.0229,0,-4.9175,-4.9246,-4.933,-4.9384,-4.9466,-4.9522,-4.9602,-4.9651,-4.972,-4.9785,-4.9822,-4.9883,-4.9951,-5.002,-5.0064,-5.0151,-5.0173,-5.0199,-5.0209,-5.0195,-5.0191,-5.0222,-5.0218,-5.0233,-5.0232,-5.0231,-5.0231,0,-4.921,-4.9269,-4.9368,-4.9461,-4.9487,-4.9543,-4.9624,-4.9678,-4.9727,-4.9809,-4.9831,-4.9907,-4.9991,-5.0052,-5.0161,-5.019,-5.0284,-5.0295,-5.0256,-5.0261,-5.0297,-5.0292,-5.0408,-5.0426,-5.036,-5.036,-5.0361,0,-4.9251,-4.9307,-4.9407,-4.9453,-4.9499,-4.9573,-4.9625,-4.9683,-4.9735,-4.9829,-4.9872,-4.9959,-5.0031,-5.0164,-5.0229,-5.0313,-5.0325,-5.036,-5.0337,-5.0321,-5.0324,-5.0319,-5.0324,-5.0362,-5.0362,-5.0363,-5.0363,0,-4.9319,-4.9345,-4.9417,-4.95,-4.956,-4.9629,-4.9698,-4.9733,-4.9804,-4.9861,-4.9947,-5.0002,-5.0113,-5.0199,-5.0289,-5.0338,-5.0362,-5.037,-5.0383,-5.0368,-5.0343,-5.0355,-5.0263,-5.0366,-5.0366,-5.0366,-5.0366,-5.0366,-4.9358,-4.9409,-4.9487,-4.9566,-4.9624,-4.9688,-4.9743,-4.9799,-4.9871,-4.9965,-4.9996,-5.0084,-5.0163,-5.0286,-5.0337,-5.0408,-5.0406,-5.0426,-5.0431,-5.0434,-5.0433,-5.0333,-5.0425,-5.0425,-5.0425,-5.0425,-5.0425,0,-4.9426,-4.9478,-4.955,-4.9645,-4.9708,-4.9725,-4.9803,-4.9854,-4.9931,-5.0002,-5.0072,-5.0171,-5.0254,-5.0327,-5.0413,-5.0456,-5.0469,-5.0477,-5.0473,-5.0484,-5.043,-5.0409,-5.0464,-5.0464,-5.0464,-5.0464,-5.0464,-5.0464,-4.9468,-4.9555,-4.9591,-4.9708,-4.976,-4.9847,-4.9889,-4.9948,-5.0005,-5.0113,-5.0182,-5.0229,-5.0301,-5.0393,-5.0471,-5.049,-5.052,-5.0524,-5.0546,-5.0493,-5.0488,-5.0483,-5.0464,-5.053,-5.053,-5.0594,-5.0595,-5.0595]},{"header":{"parameterUnit":"m.s-1","parameterCategory":1,"la1":30.2991,"la2":30.254,"lo1":-89.0895,"lo2":-89.0444,"dy":0.0017,"dx":0.0017,"nx":28,"ny":28,"refTime":"2024-04-09T09:00:00:Z","depth":0,"parameterNumber":3,"parameterNumberName":"V-component_of_WINDS"},"data":[0,0,0,0,0,0,0,0,0,0,0,0,0,0,0,0,0,0,0,0,0,0,0,0,0,0,0,0,0,0,0,0,0,0,0,0,0,0,0,0,0,0,0,0,0,0,0,0,0,0,0,0,0,0,0,0,0,0,4.811,4.8111,0,4.8171,4.8171,4.8172,4.8148,4.8147,4.8145,4.8144,4.8205,4.8208,4.8211,0,0,0,0,0,0,0,0,0,0,0,0,0,4.7974,4.7977,4.811,4.8111,4.8112,4.8171,4.8171,4.8172,4.8148,4.8147,4.8145,4.8143,4.8204,4.8207,4.8211,0,0,0,0,0,0,0,0,0,0,0,0,0,4.8034,4.7978,4.811,4.8107,4.8107,4.817,4.8171,4.8172,4.8149,4.8147,4.8145,4.8143,4.8203,4.8207,4.8211,4.8281,0,0,4.8225,4.8227,0,0,0,0,0,0,0,0,4.803,4.8039,4.8107,4.8107,4.8108,4.815,4.8146,4.8209,4.8149,4.8133,4.8144,4.8142,4.8188,4.8194,4.8209,4.8283,4.8286,4.8225,4.8228,4.823,4.8231,0,0,0,0,0,0,0,4.8026,4.8036,4.8134,4.8108,4.8108,4.8103,4.8109,4.8157,4.8172,4.8134,4.8133,4.814,4.8188,4.8205,4.8211,4.8287,4.8225,4.8229,4.8232,4.8233,4.8423,4.8425,0,0,0,0,0,0,4.8022,4.8033,4.8132,4.8136,4.8063,4.8107,4.8114,4.8138,4.8171,4.8174,4.8142,4.8139,4.8199,4.8206,4.8213,4.8297,4.823,4.8234,4.8236,4.842,4.8423,4.8426,0,0,0,0,0,0,4.8019,4.8031,4.813,4.8084,4.8096,4.8111,4.8139,4.8141,4.8158,4.8177,4.8179,4.8157,4.8197,4.8207,4.8264,4.8299,4.8236,4.824,4.8417,4.8421,4.8424,4.8466,0,0,0,0,0,0,4.8015,4.803,4.8057,4.8085,4.8099,4.818,4.8141,4.8143,4.8166,4.8162,4.8192,4.8194,4.8196,4.8258,4.8269,4.8304,4.8243,4.8414,4.8419,4.8423,4.8462,4.8471,4.8479,0,0,0,0,0,4.8011,4.8066,4.8058,4.807,4.8132,4.8182,4.819,4.8192,4.8169,4.8196,4.8208,4.8194,4.8293,4.8264,4.8276,4.8313,4.8412,4.8418,4.8423,4.8458,4.8469,4.8478,0,0,0,0,0,0,4.8041,4.8069,4.8061,4.8127,4.8153,4.8178,4.8212,4.8203,4.8236,4.8231,4.8231,4.8238,4.8298,4.8311,4.8278,4.8383,4.8349,4.8357,4.8372,4.8383,4.8391,4.8387,4.8247,0,0,0,0,0,4.8055,4.8094,4.8116,4.8172,4.8185,4.8197,4.8219,4.8218,4.8244,4.8255,4.8271,4.8297,4.8335,4.8359,4.8394,4.8464,4.847,4.8495,4.8503,4.851,4.8517,4.8556,4.8568,4.8443,4.8443,4.8443,0,0,4.8085,4.8105,4.8129,4.8179,4.8198,4.8239,4.8206,4.825,4.828,4.8261,4.8317,4.8331,4.836,4.8424,4.8453,4.8437,4.8553,4.8517,4.8522,4.8526,4.8563,4.8575,4.8585,4.8447,4.8446,4.8446,0,0,4.816,4.8179,4.8228,4.8249,4.828,4.8287,4.8299,4.8327,4.8335,4.8391,4.8379,4.8414,4.8478,4.85,4.8519,4.8605,4.8593,4.8616,4.866,4.8698,4.8708,4.8716,4.8748,4.8759,4.8623,4.8623,4.8623,0,4.8193,4.8254,4.8254,4.83,4.8322,4.8308,4.8358,4.8378,4.8419,4.8435,4.8416,4.8497,4.8516,4.8586,4.8607,4.8622,4.8637,4.8613,4.8706,4.8715,4.8723,4.8753,4.8765,4.8626,4.8625,4.8625,4.8625,0,4.8293,4.8336,4.8372,4.8412,4.8439,4.8486,4.8495,4.8521,4.8518,4.8528,4.8586,4.8608,4.8648,4.8664,4.8661,4.8734,4.8724,4.8706,4.8672,4.8738,4.8766,4.8777,4.8629,4.8628,4.8628,4.8627,0,0,4.8389,4.843,4.8444,4.8462,4.8496,4.8529,4.8576,4.8616,4.8639,4.8668,4.8708,4.8763,4.8747,4.8769,4.8769,4.8802,4.887,4.878,4.8781,4.8797,4.8953,4.8967,4.8981,4.8862,4.8864,4.8866,4.8951,0,4.8468,4.8551,4.8554,4.863,4.867,4.8658,4.8699,4.8724,4.8734,4.877,4.8781,4.8821,4.8796,4.8809,4.8842,4.8855,4.8901,4.8848,4.89,4.8902,4.8894,4.8995,4.901,4.9089,4.8962,4.8964,4.8965,0,4.8571,4.8604,4.8684,4.8713,4.873,4.8767,4.8805,4.8839,4.8867,4.8872,4.8898,4.8893,4.8942,4.8906,4.8974,4.8938,4.8959,4.8969,4.8972,4.8978,4.8938,4.9005,4.9114,4.9127,4.8982,4.8981,4.898,0,4.8634,4.8698,4.8755,4.8772,4.8807,4.8833,4.8849,4.8876,4.89,4.8933,4.8949,4.8986,4.9007,4.9037,4.9042,4.9016,4.9111,4.9075,4.9117,4.9117,4.9138,4.9137,4.9254,4.915,4.915,4.915,4.915,0,4.8722,4.8773,4.8785,4.882,4.8876,4.8878,4.8934,4.8948,4.8972,4.9009,4.9,4.9036,4.9041,4.9078,4.9082,4.9139,4.9148,4.9154,4.9155,4.9155,4.9155,4.917,4.9165,4.9153,4.9152,4.9152,4.9151,0,4.8803,4.8813,4.8874,4.8903,4.8911,4.8951,4.8976,4.901,4.9019,4.9068,4.9079,4.9094,4.9137,4.9146,4.9196,4.92,4.9267,4.9262,4.9258,4.9258,4.9299,4.9296,4.9431,4.945,4.9332,4.9334,4.9334,0,4.8859,4.8898,4.8931,4.8956,4.8973,4.9013,4.9039,4.9043,4.9069,4.9105,4.9135,4.9178,4.9212,4.9282,4.9297,4.9337,4.9333,4.9378,4.9339,4.9339,4.9335,4.9333,4.9338,4.9385,4.9387,4.9388,4.9388,0,4.8959,4.8962,4.8999,4.9038,4.9069,4.9099,4.9128,4.9149,4.9158,4.9188,4.9233,4.9259,4.9312,4.9355,4.9394,4.941,4.9401,4.9401,4.9413,4.9414,4.9411,4.9415,4.9279,4.9398,4.9397,4.9396,4.9395,4.9395,4.903,4.9064,4.9093,4.9135,4.9157,4.9185,4.9219,4.9233,4.9271,4.9314,4.9314,4.9364,4.9392,4.9444,4.9463,4.9502,4.9487,4.9504,4.9509,4.9513,4.9518,4.9404,4.9508,4.9508,4.9508,4.9508,4.9508,0,4.913,4.9149,4.9187,4.9229,4.9262,4.925,4.9282,4.9311,4.9354,4.9382,4.9416,4.9468,4.951,4.9529,4.957,4.9598,4.9595,4.9608,4.9607,4.9611,4.9528,4.9514,4.961,4.961,4.961,4.961,4.961,4.961,4.9187,4.9245,4.9251,4.9321,4.9338,4.9387,4.9406,4.9432,4.9454,4.9513,4.9548,4.956,4.9585,4.9628,4.9666,4.967,4.9687,4.9703,4.9705,4.9627,4.9617,4.9607,4.9594,4.9706,4.9706,4.9786,4.9787,4.9787]}]]